Location: Eaton Estates
(41.3089°N, 82.0057°W)
Time: 07:35:54
(UTC+00:00)

NOAA 18 - Pass Details

Date: 02 April 2023
Orbit: 838 x 860 km, 98.9° (Epoch: 03 June)

Event Time Altitude Azimuth Distance (km) Brightness Sun altitude
Exits shadow 02:13:03 22° 47° (NE) 1,790 6.7 -25.4°
Drops below altitude 10° 02:16:20 10° 13° (NNE) 2,506 7.9 -25.9°
Sets 02:19:09 0° 359° (N) 3,447 8.8 -26.4°
